Time,TemperatureF,DewpointF,PressureIn,WindDirection,WindDirectionDegrees,WindSpeedMPH,WindSpeedGustMPH,Humidity,HourlyPrecipIn,Conditions,Clouds,dailyrainin,SolarRadiationWatts/m^2,SoftwareType,DateUTC
2013-01-03 00:22:00,7.0,2.0,-100.00,East,90,2.0,6.0,80,0.00,,,0.00,0.000000,,2013-01-03 07:22:00,
2013-01-03 00:32:00,7.0,2.0,-100.00,East,90,2.0,6.0,80,0.00,,,0.00,0.000000,,2013-01-03 07:32:00,
2013-01-03 00:42:00,7.0,2.0,-100.00,East,90,2.0,6.0,80,0.00,,,0.00,0.000000,,2013-01-03 07:42:00,
2013-01-03 00:52:00,7.0,2.0,-100.00,East,90,2.0,6.0,80,0.00,,,0.00,0.000000,,2013-01-03 07:52:00,
2013-01-03 01:22:00,7.0,2.0,-100.00,East,99,3.0,9.0,79,0.00,,,0.00,0.000000,,2013-01-03 08:22:00,
2013-01-03 01:32:00,7.0,2.0,-100.00,East,99,3.0,9.0,79,0.00,,,0.00,0.000000,,2013-01-03 08:32:00,
2013-01-03 01:42:00,7.0,2.0,-100.00,East,99,3.0,9.0,79,0.00,,,0.00,0.000000,,2013-01-03 08:42:00,
2013-01-03 01:52:00,7.0,2.0,-100.00,East,99,3.0,9.0,79,0.00,,,0.00,0.000000,,2013-01-03 08:52:00,
2013-01-03 02:22:00,5.0,0.0,-100.00,ENE,75,2.0,6.0,79,0.00,,,0.00,0.000000,,2013-01-03 09:22:00,
2013-01-03 02:33:00,5.0,0.0,-100.00,ENE,75,2.0,6.0,79,0.00,,,0.00,0.000000,,2013-01-03 09:33:00,
2013-01-03 02:42:00,5.0,0.0,-100.00,ENE,75,2.0,6.0,79,0.00,,,0.00,0.000000,,2013-01-03 09:42:00,
2013-01-03 02:52:00,5.0,0.0,-100.00,ENE,75,2.0,6.0,79,0.00,,,0.00,0.000000,,2013-01-03 09:52:00,
2013-01-03 03:22:00,4.0,-3.0,-100.00,ESE,117,3.0,7.0,73,0.00,,,-99.99,0.000000,,2013-01-03 10:22:00,
2013-01-03 03:32:00,4.0,-3.0,-100.00,ESE,117,3.0,7.0,73,0.00,,,-99.99,0.000000,,2013-01-03 10:32:00,
2013-01-03 03:42:00,4.0,-3.0,-100.00,ESE,117,3.0,7.0,73,0.00,,,-99.99,0.000000,,2013-01-03 10:42:00,
2013-01-03 03:52:00,4.0,-3.0,-100.00,ESE,117,3.0,7.0,73,0.00,,,-99.99,0.000000,,2013-01-03 10:52:00,
2013-01-03 04:22:00,4.0,-1.0,-100.00,ENE,76,3.0,8.0,80,0.00,,,0.00,0.000000,,2013-01-03 11:22:00,
2013-01-03 04:33:00,4.0,-1.0,-100.00,ENE,76,3.0,8.0,80,0.00,,,0.00,0.000000,,2013-01-03 11:33:00,
2013-01-03 04:42:00,4.0,-1.0,-100.00,ENE,76,3.0,8.0,80,0.00,,,0.00,0.000000,,2013-01-03 11:42:00,
2013-01-03 04:52:00,4.0,-1.0,-100.00,ENE,76,3.0,8.0,80,0.00,,,0.00,0.000000,,2013-01-03 11:52:00,
2013-01-03 05:22:00,3.0,-1.0,-100.00,ESE,105,3.0,10.0,82,0.00,,,0.00,0.000000,,2013-01-03 12:22:00,
2013-01-03 05:32:00,3.0,-1.0,-100.00,ESE,105,3.0,10.0,82,0.00,,,0.00,0.000000,,2013-01-03 12:32:00,
2013-01-03 05:42:00,3.0,-1.0,-100.00,ESE,105,3.0,10.0,82,0.00,,,0.00,0.000000,,2013-01-03 12:42:00,
2013-01-03 05:52:00,3.0,-1.0,-100.00,ESE,105,3.0,10.0,82,0.00,,,0.00,0.000000,,2013-01-03 12:52:00,
2013-01-03 06:22:00,5.0,0.0,-100.00,East,100,4.0,8.0,79,0.00,,,0.00,0.000000,,2013-01-03 13:22:00,
2013-01-03 06:32:00,5.0,0.0,-100.00,East,100,4.0,8.0,79,0.00,,,0.00,0.000000,,2013-01-03 13:32:00,
2013-01-03 06:42:00,5.0,0.0,-100.00,East,100,4.0,8.0,79,0.00,,,0.00,0.000000,,2013-01-03 13:42:00,
2013-01-03 06:52:00,5.0,0.0,-100.00,East,100,4.0,8.0,79,0.00,,,0.00,0.000000,,2013-01-03 13:52:00,
2013-01-03 07:22:00,1.0,-4.0,-100.00,ESE,105,3.0,8.0,77,0.00,,,0.00,0.000000,,2013-01-03 14:22:00,
2013-01-03 07:32:00,1.0,-4.0,-100.00,ESE,105,3.0,8.0,77,0.00,,,0.00,0.000000,,2013-01-03 14:32:00,
2013-01-03 07:42:00,1.0,-4.0,-100.00,ESE,105,3.0,8.0,77,0.00,,,0.00,0.000000,,2013-01-03 14:42:00,
2013-01-03 07:53:00,1.0,-4.0,-100.00,ESE,105,3.0,8.0,77,0.00,,,0.00,0.000000,,2013-01-03 14:53:00,
2013-01-03 08:22:00,0.0,-7.0,-100.00,ESE,104,5.0,9.0,71,0.00,,,0.00,0.000000,,2013-01-03 15:22:00,
2013-01-03 08:33:00,0.0,-7.0,-100.00,ESE,104,5.0,9.0,71,0.00,,,0.00,0.000000,,2013-01-03 15:33:00,
2013-01-03 08:42:00,0.0,-7.0,-100.00,ESE,104,5.0,9.0,71,0.00,,,0.00,0.000000,,2013-01-03 15:42:00,
2013-01-03 08:53:00,0.0,-7.0,-100.00,ESE,104,5.0,9.0,71,0.00,,,0.00,0.000000,,2013-01-03 15:53:00,
2013-01-03 09:22:00,3.0,-5.0,-100.00,ESE,109,4.0,11.0,68,0.00,,,0.00,9.000000,,2013-01-03 16:22:00,
2013-01-03 09:33:00,3.0,-5.0,-100.00,ESE,109,4.0,11.0,68,0.00,,,0.00,9.000000,,2013-01-03 16:33:00,
2013-01-03 09:43:00,3.0,-5.0,-100.00,ESE,109,4.0,11.0,68,0.00,,,0.00,9.000000,,2013-01-03 16:43:00,
2013-01-03 09:52:00,3.0,-5.0,-100.00,ESE,109,4.0,11.0,68,0.00,,,0.00,9.000000,,2013-01-03 16:52:00,
2013-01-03 10:22:00,9.0,-7.0,-100.00,SE,129,1.0,9.0,47,0.00,,,0.00,169.000000,,2013-01-03 17:22:00,
2013-01-03 10:33:00,9.0,-7.0,-100.00,SE,129,1.0,9.0,47,0.00,,,0.00,169.000000,,2013-01-03 17:33:00,
2013-01-03 10:42:00,9.0,-7.0,-100.00,SE,129,1.0,9.0,47,0.00,,,0.00,169.000000,,2013-01-03 17:42:00,
2013-01-03 10:52:00,9.0,-7.0,-100.00,SE,129,1.0,9.0,47,0.00,,,0.00,169.000000,,2013-01-03 17:52:00,
2013-01-03 11:22:00,18.0,2.0,-100.00,NNW,342,2.0,5.0,48,0.00,,,0.00,375.000000,,2013-01-03 18:22:00,
2013-01-03 11:33:00,18.0,2.0,-100.00,NNW,342,2.0,5.0,48,0.00,,,0.00,375.000000,,2013-01-03 18:33:00,
2013-01-03 11:42:00,18.0,2.0,-100.00,NNW,342,2.0,5.0,48,0.00,,,0.00,375.000000,,2013-01-03 18:42:00,
2013-01-03 11:53:00,18.0,2.0,-100.00,NNW,342,2.0,5.0,48,0.00,,,0.00,375.000000,,2013-01-03 18:53:00,
2013-01-03 12:53:00,20.0,3.0,-100.00,NW,314,4.0,4.0,46,0.00,,,0.00,531.000000,,2013-01-03 19:53:00,
2013-01-03 13:22:00,21.0,2.0,-100.00,NW,313,3.0,6.0,42,0.00,,,0.00,634.000000,,2013-01-03 20:22:00,
2013-01-03 13:33:00,21.0,2.0,-100.00,NW,313,3.0,6.0,42,0.00,,,0.00,634.000000,,2013-01-03 20:33:00,
2013-01-03 13:42:00,21.0,2.0,-100.00,NW,313,3.0,6.0,42,0.00,,,0.00,634.000000,,2013-01-03 20:42:00,
2013-01-03 13:53:00,21.0,2.0,-100.00,NW,313,3.0,6.0,42,0.00,,,0.00,634.000000,,2013-01-03 20:53:00,
2013-01-03 14:22:00,25.0,2.0,-100.00,NW,315,2.0,6.0,37,0.00,,,0.00,664.000000,,2013-01-03 21:22:00,
2013-01-03 14:35:00,25.0,2.0,-100.00,NW,315,2.0,6.0,37,0.00,,,0.00,664.000000,,2013-01-03 21:35:00,
2013-01-03 14:46:00,25.0,2.0,-100.00,NW,315,2.0,6.0,37,0.00,,,0.00,664.000000,,2013-01-03 21:46:00,
2013-01-03 14:52:00,25.0,2.0,-100.00,NW,315,2.0,6.0,37,0.00,,,0.00,664.000000,,2013-01-03 21:52:00,
2013-01-03 15:22:00,28.0,3.0,-100.00,NW,314,2.0,5.0,33,0.00,,,0.00,617.000000,,2013-01-03 22:22:00,
2013-01-03 15:32:00,28.0,3.0,-100.00,NW,314,2.0,5.0,33,0.00,,,0.00,617.000000,,2013-01-03 22:32:00,
2013-01-03 15:42:00,28.0,3.0,-100.00,NW,314,2.0,5.0,33,0.00,,,0.00,617.000000,,2013-01-03 22:42:00,
2013-01-03 15:52:00,28.0,3.0,-100.00,NW,314,2.0,5.0,33,0.00,,,0.00,617.000000,,2013-01-03 22:52:00,
2013-01-03 16:22:00,30.0,6.0,-100.00,North,0,3.0,4.0,36,0.00,,,0.00,501.000000,,2013-01-03 23:22:00,
2013-01-03 16:32:00,30.0,6.0,-100.00,North,0,3.0,4.0,36,0.00,,,0.00,501.000000,,2013-01-03 23:32:00,
2013-01-03 16:42:00,30.0,6.0,-100.00,North,0,3.0,4.0,36,0.00,,,0.00,501.000000,,2013-01-03 23:42:00,
2013-01-03 16:52:00,30.0,6.0,-100.00,North,0,3.0,4.0,36,0.00,,,0.00,501.000000,,2013-01-03 23:52:00,
2013-01-03 17:22:00,27.0,8.0,-100.00,NNE,21,4.0,4.0,44,-99.99,,,-99.99,328.000000,,2013-01-04 00:22:00,
2013-01-03 17:32:00,27.0,8.0,-100.00,NNE,21,4.0,4.0,44,-99.99,,,-99.99,328.000000,,2013-01-04 00:32:00,
2013-01-03 17:42:00,27.0,8.0,-100.00,NNE,21,4.0,4.0,44,-99.99,,,-99.99,328.000000,,2013-01-04 00:42:00,
2013-01-03 17:52:00,27.0,8.0,-100.00,NNE,21,4.0,4.0,44,-99.99,,,-99.99,328.000000,,2013-01-04 00:52:00,
2013-01-03 18:22:00,23.0,4.0,-100.00,SW,221,0.0,4.0,44,0.00,,,0.00,121.000000,,2013-01-04 01:22:00,
2013-01-03 18:32:00,23.0,4.0,-100.00,SW,221,0.0,4.0,44,0.00,,,0.00,121.000000,,2013-01-04 01:32:00,
2013-01-03 19:22:00,20.0,8.0,-100.00,East,94,4.0,4.0,60,-99.99,,,0.00,2.000000,,2013-01-04 02:22:00,
2013-01-03 19:32:00,20.0,8.0,-100.00,East,94,4.0,4.0,60,-99.99,,,0.00,2.000000,,2013-01-04 02:32:00,
2013-01-03 19:42:00,20.0,8.0,-100.00,East,94,4.0,4.0,60,-99.99,,,0.00,2.000000,,2013-01-04 02:42:00,
2013-01-03 19:52:00,20.0,8.0,-100.00,East,94,4.0,4.0,60,-99.99,,,0.00,2.000000,,2013-01-04 02:52:00,
2013-01-03 20:22:00,15.0,5.0,-100.00,East,96,5.0,8.0,65,0.00,,,0.00,0.000000,,2013-01-04 03:22:00,
2013-01-03 20:32:00,15.0,5.0,-100.00,East,96,5.0,8.0,65,0.00,,,0.00,0.000000,,2013-01-04 03:32:00,
2013-01-03 20:42:00,15.0,5.0,-100.00,East,96,5.0,8.0,65,0.00,,,0.00,0.000000,,2013-01-04 03:42:00,
2013-01-03 20:52:00,15.0,5.0,-100.00,East,96,5.0,8.0,65,0.00,,,0.00,0.000000,,2013-01-04 03:52:00,
2013-01-03 21:22:00,12.0,4.0,-100.00,ESE,110,0.0,8.0,70,0.00,,,-99.99,0.000000,,2013-01-04 04:22:00,
2013-01-03 21:32:00,12.0,4.0,-100.00,ESE,110,0.0,8.0,70,0.00,,,-99.99,0.000000,,2013-01-04 04:32:00,
2013-01-03 21:42:00,12.0,4.0,-100.00,ESE,110,0.0,8.0,70,0.00,,,-99.99,0.000000,,2013-01-04 04:42:00,
2013-01-03 21:52:00,12.0,4.0,-100.00,ESE,110,0.0,8.0,70,0.00,,,-99.99,0.000000,,2013-01-04 04:52:00,
2013-01-03 22:22:00,9.0,2.0,-100.00,East,95,4.0,7.0,71,0.00,,,0.00,0.000000,,2013-01-04 05:22:00,
2013-01-03 22:33:00,9.0,2.0,-100.00,East,95,4.0,7.0,71,0.00,,,0.00,0.000000,,2013-01-04 05:33:00,
2013-01-03 22:42:00,9.0,2.0,-100.00,East,95,4.0,7.0,71,0.00,,,0.00,0.000000,,2013-01-04 05:42:00,
2013-01-03 22:52:00,9.0,2.0,-100.00,East,95,4.0,7.0,71,0.00,,,0.00,0.000000,,2013-01-04 05:52:00,
2013-01-03 23:22:00,9.0,2.0,-100.00,East,83,5.0,6.0,71,0.00,,,0.00,0.000000,,2013-01-04 06:22:00,
2013-01-03 23:32:00,9.0,2.0,-100.00,East,83,5.0,6.0,71,0.00,,,0.00,0.000000,,2013-01-04 06:32:00,
2013-01-03 23:42:00,9.0,2.0,-100.00,East,83,5.0,6.0,71,0.00,,,0.00,0.000000,,2013-01-04 06:42:00,
2013-01-03 23:52:00,9.0,2.0,-100.00,East,83,5.0,6.0,71,0.00,,,0.00,0.000000,,2013-01-04 06:52:00,